Location: Gleizolles
(44.4833°N, 6.7667°E)
Time: 03:29:27
(UTC+00:00)

Vanguard 1 Rocket - Pass Details

Date: 26 June 2024
Orbit: 650 x 4219 km, 34.3° (Epoch: 15 July)

Event Time Altitude Azimuth Distance (km) Brightness Sun altitude
Rises 00:52:53 0° 239° (WSW) 5,065 - -19.9°
Reaches altitude 10° 00:55:39 10° 235° (SW) 4,427 - -19.8°
Exits shadow 00:57:42 18° 230° (SW) 4,023 10.2 -19.6°
Maximum altitude 01:08:34 56° 161° (SSE) 3,426 10.0 -18.9°
Drops below altitude 10° 01:31:14 10° 93° (E) 7,313 12.3 -17.2°
Sets 01:37:30 0° 90° (E) 8,459 12.7 -16.7°
